Time,TemperatureF,DewpointF,PressureIn,WindDirection,WindDirectionDegrees,WindSpeedMPH,WindSpeedGustMPH,Humidity,HourlyPrecipIn,Conditions,Clouds,dailyrainin,SoftwareType,DateUTC
2013-05-20 00:06:00,70.2,39.7,29.26,East,96,3.1,22.4,33,0.20,,,0.20,VWS V13.01,2013-05-20 04:06:00,
2013-05-20 00:11:00,70.0,39.6,29.26,ESE,103,4.0,22.4,33,0.20,,,0.20,VWS V13.01,2013-05-20 04:11:00,
2013-05-20 00:16:00,69.6,40.0,29.26,East,84,4.0,22.4,34,0.20,,,0.20,VWS V13.01,2013-05-20 04:16:00,
2013-05-20 00:21:00,69.6,40.0,29.26,East,97,3.6,22.4,34,0.20,,,0.20,VWS V13.01,2013-05-20 04:21:00,
2013-05-20 00:27:00,69.6,40.0,29.26,SE,124,2.7,22.4,34,0.20,,,0.20,VWS V13.01,2013-05-20 04:27:00,
2013-05-20 00:32:00,69.6,40.0,29.26,ESE,117,3.1,22.4,34,0.20,,,0.20,VWS V13.01,2013-05-20 04:32:00,
2013-05-20 00:37:00,69.4,39.1,29.26,East,89,4.9,22.4,33,0.20,,,0.20,VWS V13.01,2013-05-20 04:37:00,
2013-05-20 00:42:00,69.4,39.1,29.26,ESE,107,3.6,22.4,33,0.20,,,0.20,VWS V13.01,2013-05-20 04:42:00,
2013-05-20 00:47:00,69.4,39.1,29.26,East,95,4.0,22.4,33,0.20,,,0.20,VWS V13.01,2013-05-20 04:47:00,
2013-05-20 00:52:00,69.3,39.0,29.26,ESE,105,2.7,22.4,33,0.20,,,0.20,VWS V13.01,2013-05-20 04:52:00,
2013-05-20 00:57:00,69.1,38.8,29.26,ENE,70,5.4,22.4,33,0.20,,,0.20,VWS V13.01,2013-05-20 04:57:00,
2013-05-20 01:02:00,69.1,38.8,29.26,East,85,3.6,22.4,33,0.20,,,0.20,VWS V13.01,2013-05-20 05:02:00,
2013-05-20 01:11:00,69.4,39.1,29.26,ESE,110,4.9,22.4,33,0.20,,,0.20,VWS V13.01,2013-05-20 05:11:00,
2013-05-20 01:18:00,69.6,38.5,29.26,ESE,123,3.1,22.4,32,0.20,,,0.20,VWS V13.01,2013-05-20 05:18:00,
2013-05-20 01:23:00,69.4,38.3,29.26,ESE,114,4.9,22.4,32,0.20,,,0.20,VWS V13.01,2013-05-20 05:23:00,
2013-05-20 01:28:00,69.4,38.3,29.26,ENE,72,4.9,22.4,32,0.20,,,0.20,VWS V13.01,2013-05-20 05:28:00,
2013-05-20 01:33:00,69.6,38.5,29.26,SE,125,4.0,22.4,32,0.20,,,0.20,VWS V13.01,2013-05-20 05:33:00,
2013-05-20 01:38:00,69.6,36.0,29.26,SE,133,3.6,22.4,29,0.20,,,0.20,VWS V13.01,2013-05-20 05:38:00,
2013-05-20 01:43:00,69.8,34.3,29.26,East,99,5.8,22.4,27,0.20,,,0.20,VWS V13.01,2013-05-20 05:43:00,
2013-05-20 01:48:00,69.8,34.3,29.26,East,101,5.4,22.4,27,0.20,,,0.20,VWS V13.01,2013-05-20 05:48:00,
2013-05-20 01:53:00,70.0,34.5,29.26,East,93,4.9,22.4,27,0.20,,,0.20,VWS V13.01,2013-05-20 05:53:00,
2013-05-20 01:58:00,70.0,34.5,29.26,East,92,7.6,22.4,27,0.20,,,0.20,VWS V13.01,2013-05-20 05:58:00,
2013-05-20 02:03:00,70.0,33.5,29.26,East,95,5.4,22.4,26,0.20,,,0.20,VWS V13.01,2013-05-20 06:03:00,
2013-05-20 02:08:00,70.0,34.5,29.26,East,84,7.6,22.4,27,0.20,,,0.20,VWS V13.01,2013-05-20 06:08:00,
2013-05-20 02:13:00,69.8,34.3,29.26,East,93,5.4,22.4,27,0.20,,,0.20,VWS V13.01,2013-05-20 06:13:00,
2013-05-20 02:18:00,69.8,34.3,29.26,ESE,113,3.1,22.4,27,0.20,,,0.20,VWS V13.01,2013-05-20 06:18:00,
2013-05-20 02:23:00,69.8,35.3,29.26,ENE,76,4.0,22.4,28,0.20,,,0.20,VWS V13.01,2013-05-20 06:23:00,
2013-05-20 02:28:00,70.0,34.5,29.26,East,79,5.8,22.4,27,0.20,,,0.20,VWS V13.01,2013-05-20 06:28:00,
2013-05-20 02:33:00,70.2,34.7,29.26,East,99,4.9,22.4,27,0.20,,,0.20,VWS V13.01,2013-05-20 06:33:00,
2013-05-20 02:38:00,70.2,34.7,29.26,ESE,123,3.1,22.4,27,0.20,,,0.20,VWS V13.01,2013-05-20 06:38:00,
2013-05-20 02:43:00,70.0,35.4,29.26,ESE,123,0.0,22.4,28,0.20,,,0.20,VWS V13.01,2013-05-20 06:43:00,
2013-05-20 02:48:00,69.4,37.5,29.26,ESE,109,3.1,22.4,31,0.20,,,0.20,VWS V13.01,2013-05-20 06:48:00,
2013-05-20 02:53:00,69.1,38.0,29.26,ESE,117,5.4,22.4,32,0.20,,,0.20,VWS V13.01,2013-05-20 06:53:00,
2013-05-20 02:58:00,69.3,38.2,29.26,East,92,3.1,22.4,32,0.20,,,0.20,VWS V13.01,2013-05-20 06:58:00,
2013-05-20 03:03:00,69.3,39.0,29.26,ESE,102,4.0,22.4,33,0.20,,,0.20,VWS V13.01,2013-05-20 07:03:00,
2013-05-20 03:08:00,69.4,38.3,29.26,ESE,108,5.4,22.4,32,0.20,,,0.20,VWS V13.01,2013-05-20 07:08:00,
2013-05-20 03:13:00,69.6,38.5,29.26,East,100,4.0,22.4,32,0.20,,,0.20,VWS V13.01,2013-05-20 07:13:00,
2013-05-20 03:18:00,69.4,39.1,29.26,ESE,104,4.0,22.4,33,0.20,,,0.20,VWS V13.01,2013-05-20 07:18:00,
2013-05-20 03:23:00,69.4,39.1,29.26,SE,131,5.4,22.4,33,0.20,,,0.20,VWS V13.01,2013-05-20 07:23:00,
2013-05-20 03:28:00,69.4,39.1,29.26,ESE,104,6.3,22.4,33,0.20,,,0.20,VWS V13.01,2013-05-20 07:28:00,
2013-05-20 03:33:00,69.6,38.5,29.26,ENE,68,5.8,22.4,32,0.20,,,0.20,VWS V13.01,2013-05-20 07:33:00,
2013-05-20 03:38:00,69.8,38.6,29.26,East,98,4.0,22.4,32,0.20,,,0.20,VWS V13.01,2013-05-20 07:38:00,
2013-05-20 03:43:00,69.8,38.6,29.26,East,88,3.6,22.4,32,0.20,,,0.20,VWS V13.01,2013-05-20 07:43:00,
2013-05-20 03:48:00,69.8,38.6,29.26,ESE,106,3.6,22.4,32,0.20,,,0.20,VWS V13.01,2013-05-20 07:48:00,
2013-05-20 03:53:00,69.6,39.3,29.26,East,84,5.4,22.4,33,0.20,,,0.20,VWS V13.01,2013-05-20 07:53:00,
2013-05-20 03:58:00,69.6,39.3,29.26,East,90,4.9,22.4,33,0.20,,,0.20,VWS V13.01,2013-05-20 07:58:00,
2013-05-20 04:03:00,69.6,39.3,29.26,ENE,74,3.6,22.4,33,0.20,,,0.20,VWS V13.01,2013-05-20 08:03:00,
2013-05-20 04:08:00,69.8,38.6,29.26,East,92,3.6,22.4,32,0.20,,,0.20,VWS V13.01,2013-05-20 08:08:00,
2013-05-20 04:13:00,69.6,39.3,29.26,ESE,103,4.9,22.4,33,0.20,,,0.20,VWS V13.01,2013-05-20 08:13:00,
2013-05-20 04:18:00,69.4,39.1,29.26,ESE,107,4.9,22.4,33,0.20,,,0.20,VWS V13.01,2013-05-20 08:18:00,
2013-05-20 04:23:00,69.3,39.0,29.26,ESE,111,2.7,22.4,33,0.20,,,0.20,VWS V13.01,2013-05-20 08:23:00,
2013-05-20 04:28:00,69.1,39.6,29.26,ESE,105,5.4,22.4,34,0.20,,,0.20,VWS V13.01,2013-05-20 08:28:00,
2013-05-20 04:33:00,69.1,39.6,29.26,ENE,77,4.9,22.4,34,0.20,,,0.20,VWS V13.01,2013-05-20 08:33:00,
2013-05-20 04:38:00,69.1,39.6,29.26,East,93,3.6,22.4,34,0.20,,,0.20,VWS V13.01,2013-05-20 08:38:00,
2013-05-20 04:43:00,69.1,39.6,29.26,East,100,4.0,22.4,34,0.20,,,0.20,VWS V13.01,2013-05-20 08:43:00,
2013-05-20 04:48:00,68.9,39.4,29.26,SE,125,4.9,22.4,34,0.20,,,0.20,VWS V13.01,2013-05-20 08:48:00,
2013-05-20 04:53:00,68.5,39.8,29.26,East,100,3.1,22.4,35,0.20,,,0.20,VWS V13.01,2013-05-20 08:53:00,
2013-05-20 04:58:00,68.2,40.2,29.26,ESE,121,3.6,22.4,36,0.20,,,0.20,VWS V13.01,2013-05-20 08:58:00,
2013-05-20 05:03:00,68.2,40.9,29.26,East,85,5.8,22.4,37,0.20,,,0.20,VWS V13.01,2013-05-20 09:03:00,
2013-05-20 05:08:00,68.0,40.8,29.26,ESE,110,4.0,22.4,37,0.20,,,0.20,VWS V13.01,2013-05-20 09:08:00,
2013-05-20 05:13:00,68.0,40.8,29.26,ESE,116,5.4,22.4,37,0.20,,,0.20,VWS V13.01,2013-05-20 09:13:00,
2013-05-20 05:18:00,67.8,41.3,29.26,ESE,105,5.8,22.4,38,0.20,,,0.20,VWS V13.01,2013-05-20 09:18:00,
2013-05-20 05:23:00,67.8,41.3,29.26,East,99,5.8,22.4,38,0.20,,,0.20,VWS V13.01,2013-05-20 09:23:00,
2013-05-20 05:28:00,67.8,41.3,29.26,East,100,7.6,22.4,38,0.20,,,0.20,VWS V13.01,2013-05-20 09:28:00,
2013-05-20 05:33:00,67.6,41.8,29.26,ENE,77,6.3,22.4,39,0.20,,,0.20,VWS V13.01,2013-05-20 09:33:00,
2013-05-20 05:38:00,67.6,41.2,29.26,East,101,5.8,22.4,38,0.20,,,0.20,VWS V13.01,2013-05-20 09:38:00,
2013-05-20 05:43:00,67.6,41.2,29.26,East,101,5.4,22.4,38,0.20,,,0.20,VWS V13.01,2013-05-20 09:43:00,
2013-05-20 05:48:00,67.6,41.2,29.26,East,96,5.8,22.4,38,0.20,,,0.20,VWS V13.01,2013-05-20 09:48:00,
2013-05-20 05:53:00,67.5,41.0,29.26,East,85,6.3,22.4,38,0.20,,,0.20,VWS V13.01,2013-05-20 09:53:00,
2013-05-20 05:58:00,67.6,40.5,29.26,ESE,103,4.0,22.4,37,0.20,,,0.20,VWS V13.01,2013-05-20 09:58:00,
2013-05-20 06:03:00,67.6,39.8,29.26,East,87,6.3,22.4,36,0.20,,,0.20,VWS V13.01,2013-05-20 10:03:00,
2013-05-20 06:08:00,67.8,39.2,29.26,ESE,109,3.6,22.4,35,0.20,,,0.20,VWS V13.01,2013-05-20 10:08:00,
2013-05-20 06:13:00,67.8,39.2,29.26,East,98,3.6,22.4,35,0.20,,,0.20,VWS V13.01,2013-05-20 10:13:00,
2013-05-20 06:18:00,67.6,39.0,29.26,ENE,71,4.0,22.4,35,0.20,,,0.20,VWS V13.01,2013-05-20 10:18:00,
2013-05-20 06:23:00,67.6,39.8,29.26,East,99,4.0,22.4,36,0.20,,,0.20,VWS V13.01,2013-05-20 10:23:00,
2013-05-20 06:28:00,67.6,39.0,29.26,East,91,2.7,22.4,35,0.20,,,0.20,VWS V13.01,2013-05-20 10:28:00,
2013-05-20 06:33:00,67.6,39.0,29.26,ESE,120,4.0,22.4,35,0.20,,,0.20,VWS V13.01,2013-05-20 10:33:00,
2013-05-20 06:38:00,67.3,39.4,29.26,SE,126,2.7,22.4,36,0.20,,,0.20,VWS V13.01,2013-05-20 10:38:00,
2013-05-20 06:43:00,66.9,40.5,29.29,ESE,123,4.0,22.4,38,0.20,,,0.20,VWS V13.01,2013-05-20 10:43:00,
2013-05-20 06:48:00,66.7,41.0,29.29,ESE,111,4.0,22.4,39,0.20,,,0.20,VWS V13.01,2013-05-20 10:48:00,
2013-05-20 06:53:00,66.7,41.7,29.29,ENE,77,3.1,22.4,40,0.20,,,0.20,VWS V13.01,2013-05-20 10:53:00,
2013-05-20 06:58:00,66.7,41.7,29.29,ESE,111,0.0,22.4,40,0.20,,,0.20,VWS V13.01,2013-05-20 10:58:00,
2013-05-20 07:03:00,66.6,41.5,29.29,SE,125,3.1,22.4,40,0.20,,,0.20,VWS V13.01,2013-05-20 11:03:00,
2013-05-20 07:08:00,66.4,42.6,29.29,East,83,4.0,22.4,42,0.20,,,0.20,VWS V13.01,2013-05-20 11:08:00,
2013-05-20 07:13:00,66.7,42.9,29.29,ESE,113,4.0,22.4,42,0.20,,,0.20,VWS V13.01,2013-05-20 11:13:00,
2013-05-20 07:18:00,67.1,42.0,29.29,ESE,103,2.2,22.4,40,0.20,,,0.20,VWS V13.01,2013-05-20 11:18:00,
2013-05-20 07:23:00,67.5,41.0,29.29,East,90,2.7,22.4,38,0.20,,,0.20,VWS V13.01,2013-05-20 11:23:00,
2013-05-20 07:28:00,67.8,41.3,29.29,SE,136,2.7,22.4,38,0.20,,,0.20,VWS V13.01,2013-05-20 11:28:00,
2013-05-20 07:33:00,68.0,40.1,29.29,SE,142,2.7,22.4,36,0.20,,,0.20,VWS V13.01,2013-05-20 11:33:00,
2013-05-20 07:38:00,68.2,39.5,29.29,ESE,116,3.1,22.4,35,0.20,,,0.20,VWS V13.01,2013-05-20 11:38:00,
2013-05-20 07:43:00,68.4,39.7,29.29,ESE,102,2.7,22.4,35,0.20,,,0.20,VWS V13.01,2013-05-20 11:43:00,
2013-05-20 07:48:00,68.5,39.8,29.29,East,96,0.0,22.4,35,0.20,,,0.20,VWS V13.01,2013-05-20 11:48:00,
2013-05-20 07:53:00,68.7,39.2,29.29,East,81,2.7,22.4,34,0.20,,,0.20,VWS V13.01,2013-05-20 11:53:00,
2013-05-20 07:58:00,69.1,39.6,29.29,East,87,3.1,22.4,34,0.20,,,0.20,VWS V13.01,2013-05-20 11:58:00,
2013-05-20 08:03:00,69.3,39.0,29.29,East,92,2.7,22.4,33,0.20,,,0.20,VWS V13.01,2013-05-20 12:03:00,
2013-05-20 08:08:00,69.6,39.3,29.29,East,86,4.0,22.4,33,0.20,,,0.20,VWS V13.01,2013-05-20 12:08:00,
2013-05-20 08:13:00,69.8,38.6,29.29,East,101,2.7,22.4,32,0.20,,,0.20,VWS V13.01,2013-05-20 12:13:00,
2013-05-20 08:18:00,70.2,39.0,29.29,East,83,0.0,22.4,32,0.20,,,0.20,VWS V13.01,2013-05-20 12:18:00,
2013-05-20 08:23:00,70.5,39.3,29.29,East,98,4.0,22.4,32,0.20,,,0.20,VWS V13.01,2013-05-20 12:23:00,
2013-05-20 08:28:00,70.7,36.9,29.32,East,96,4.0,22.4,29,0.20,,,0.20,VWS V13.01,2013-05-20 12:28:00,
2013-05-20 08:33:00,70.9,39.6,29.32,ESE,109,3.6,22.4,32,0.20,,,0.20,VWS V13.01,2013-05-20 12:33:00,
2013-05-20 08:38:00,71.1,37.2,29.32,ESE,107,5.8,22.4,29,0.20,,,0.20,VWS V13.01,2013-05-20 12:38:00,
2013-05-20 08:43:00,71.4,37.5,29.32,NE,51,4.9,22.4,29,0.20,,,0.20,VWS V13.01,2013-05-20 12:43:00,
2013-05-20 08:48:00,71.6,35.9,29.32,ESE,106,6.3,22.4,27,0.20,,,0.20,VWS V13.01,2013-05-20 12:48:00,
2013-05-20 08:53:00,71.8,37.0,29.32,ESE,122,4.0,22.4,28,0.20,,,0.20,VWS V13.01,2013-05-20 12:53:00,
2013-05-20 08:58:00,72.1,36.3,29.32,ESE,117,5.4,22.4,27,0.20,,,0.20,VWS V13.01,2013-05-20 12:58:00,
2013-05-20 09:03:00,72.5,34.7,29.32,ENE,74,5.8,22.4,25,0.20,,,0.20,VWS V13.01,2013-05-20 13:03:00,
2013-05-20 09:08:00,72.5,35.7,29.32,East,100,6.3,22.4,26,0.20,,,0.20,VWS V13.01,2013-05-20 13:08:00,
2013-05-20 09:14:00,73.0,36.2,29.32,ESE,108,3.6,22.4,26,0.20,,,0.20,VWS V13.01,2013-05-20 13:14:00,
2013-05-20 09:19:00,73.4,35.5,29.32,East,80,4.0,22.4,25,0.20,,,0.20,VWS V13.01,2013-05-20 13:19:00,
2013-05-20 09:24:00,73.8,33.7,29.32,SSE,161,3.6,22.4,23,0.20,,,0.20,VWS V13.01,2013-05-20 13:24:00,
2013-05-20 09:31:00,74.5,34.3,29.32,South,170,3.1,22.4,23,0.20,,,0.20,VWS V13.01,2013-05-20 13:31:00,
2013-05-20 09:36:00,75.0,34.7,29.32,SSE,148,0.0,22.4,23,0.20,,,0.20,VWS V13.01,2013-05-20 13:36:00,
2013-05-20 09:41:00,75.4,33.9,29.32,ESE,116,3.6,22.4,22,0.20,,,0.20,VWS V13.01,2013-05-20 13:41:00,
2013-05-20 09:46:00,75.7,33.1,29.32,SSE,167,6.3,22.4,21,0.20,,,0.20,VWS V13.01,2013-05-20 13:46:00,
2013-05-20 09:51:00,75.7,33.1,29.32,SSE,147,0.0,22.4,21,0.20,,,0.20,VWS V13.01,2013-05-20 13:51:00,
2013-05-20 09:56:00,76.5,33.7,29.32,SE,144,3.6,22.4,21,0.20,,,0.20,VWS V13.01,2013-05-20 13:56:00,
2013-05-20 10:03:00,76.8,34.0,29.32,SSW,193,4.9,22.4,21,0.20,,,0.20,VWS V13.01,2013-05-20 14:03:00,
2013-05-20 10:08:00,76.3,33.5,29.32,South,187,0.0,22.4,21,0.20,,,0.20,VWS V13.01,2013-05-20 14:08:00,
2013-05-20 10:13:00,76.5,33.7,29.32,East,88,0.0,22.4,21,0.20,,,0.20,VWS V13.01,2013-05-20 14:13:00,
2013-05-20 10:18:00,77.0,34.1,29.32,ESE,105,2.2,22.4,21,0.20,,,0.20,VWS V13.01,2013-05-20 14:18:00,
2013-05-20 10:23:00,77.4,33.2,29.32,SW,225,2.2,22.4,20,0.20,,,0.20,VWS V13.01,2013-05-20 14:23:00,
2013-05-20 10:28:00,77.2,33.0,29.32,WSW,256,0.0,22.4,20,0.20,,,0.20,VWS V13.01,2013-05-20 14:28:00,
2013-05-20 10:33:00,77.2,33.0,29.32,WSW,239,6.7,22.4,20,0.20,,,0.20,VWS V13.01,2013-05-20 14:33:00,
2013-05-20 10:38:00,76.8,32.8,29.32,WSW,238,0.0,22.4,20,0.20,,,0.20,VWS V13.01,2013-05-20 14:38:00,
2013-05-20 10:43:00,77.2,34.3,29.32,South,172,5.8,22.4,21,0.20,,,0.20,VWS V13.01,2013-05-20 14:43:00,
2013-05-20 10:48:00,77.5,33.3,29.32,WNW,283,3.1,22.4,20,0.20,,,0.20,VWS V13.01,2013-05-20 14:48:00,
2013-05-20 10:53:00,77.5,34.6,29.32,SW,229,7.6,22.4,21,0.20,,,0.20,VWS V13.01,2013-05-20 14:53:00,
2013-05-20 10:58:00,77.5,34.6,29.35,SW,216,4.0,22.4,21,0.20,,,0.20,VWS V13.01,2013-05-20 14:58:00,
2013-05-20 11:03:00,77.7,33.5,29.35,WNW,297,0.0,22.4,20,0.20,,,0.20,VWS V13.01,2013-05-20 15:03:00,
2013-05-20 11:08:00,77.7,33.5,29.35,WSW,242,8.1,22.4,20,0.20,,,0.20,VWS V13.01,2013-05-20 15:08:00,
2013-05-20 11:13:00,77.7,34.7,29.32,West,274,4.9,22.4,21,0.20,,,0.20,VWS V13.01,2013-05-20 15:13:00,
2013-05-20 11:18:00,77.7,34.7,29.32,SW,214,0.0,22.4,21,0.20,,,0.20,VWS V13.01,2013-05-20 15:18:00,
2013-05-20 11:23:00,77.7,34.7,29.32,SSW,208,2.7,22.4,21,0.20,,,0.20,VWS V13.01,2013-05-20 15:23:00,
2013-05-20 11:28:00,78.1,35.0,29.32,SW,227,5.4,22.4,21,0.20,,,0.20,VWS V13.01,2013-05-20 15:28:00,
2013-05-20 11:33:00,77.9,34.9,29.32,SW,214,3.6,22.4,21,0.20,,,0.20,VWS V13.01,2013-05-20 15:33:00,
2013-05-20 11:38:00,77.9,34.9,29.32,SW,234,3.1,22.4,21,0.20,,,0.16,VWS V13.01,2013-05-20 15:38:00,
2013-05-20 11:43:00,77.7,34.7,29.32,SW,222,5.8,22.4,21,0.20,,,0.16,VWS V13.01,2013-05-20 15:43:00,
2013-05-20 11:48:00,77.7,34.7,29.32,SSW,201,2.2,22.4,21,0.20,,,0.16,VWS V13.01,2013-05-20 15:48:00,
2013-05-20 11:53:00,77.7,34.7,29.32,South,185,2.7,22.4,21,0.20,,,0.16,VWS V13.01,2013-05-20 15:53:00,
2013-05-20 11:58:00,77.9,34.9,29.32,WSW,246,4.0,22.4,21,0.20,,,0.16,VWS V13.01,2013-05-20 15:58:00,
2013-05-20 12:03:00,77.9,36.0,29.32,SW,233,5.8,22.4,22,0.20,,,0.16,VWS V13.01,2013-05-20 16:03:00,
2013-05-20 12:08:00,77.9,36.0,29.32,West,263,2.7,22.4,22,0.20,,,0.16,VWS V13.01,2013-05-20 16:08:00,
2013-05-20 12:13:00,78.3,35.2,29.32,WNW,294,2.2,22.4,21,0.20,,,0.16,VWS V13.01,2013-05-20 16:13:00,
2013-05-20 12:18:00,78.4,35.3,29.32,WSW,237,3.1,22.4,21,0.20,,,0.16,VWS V13.01,2013-05-20 16:18:00,
2013-05-20 12:23:00,78.4,35.3,29.32,WNW,303,3.6,22.4,21,0.20,,,0.16,VWS V13.01,2013-05-20 16:23:00,
2013-05-20 12:28:00,78.6,35.5,29.32,SSW,192,5.4,22.4,21,0.20,,,0.16,VWS V13.01,2013-05-20 16:28:00,
2013-05-20 12:33:00,79.0,35.8,29.32,SSW,205,4.5,22.4,21,0.20,,,0.16,VWS V13.01,2013-05-20 16:33:00,
2013-05-20 12:38:00,79.2,35.9,29.32,WSW,237,5.4,22.4,21,0.20,,,0.16,VWS V13.01,2013-05-20 16:38:00,
2013-05-20 12:43:00,79.0,34.5,29.32,WSW,242,5.8,22.4,20,0.20,,,0.16,VWS V13.01,2013-05-20 16:43:00,
2013-05-20 12:48:00,78.8,35.6,29.32,WSW,254,2.7,22.4,21,0.20,,,0.16,VWS V13.01,2013-05-20 16:48:00,
2013-05-20 12:53:00,79.0,35.8,29.32,WNW,303,2.7,22.4,21,0.20,,,0.16,VWS V13.01,2013-05-20 16:53:00,
2013-05-20 12:58:00,79.2,35.9,29.32,SW,218,3.1,22.4,21,0.20,,,0.16,VWS V13.01,2013-05-20 16:58:00,
2013-05-20 13:03:00,79.7,35.1,29.32,SW,222,3.6,22.4,20,0.20,,,0.16,VWS V13.01,2013-05-20 17:03:00,
2013-05-20 13:12:00,80.6,35.9,29.32,SW,218,4.9,22.4,20,0.20,,,0.16,VWS V13.01,2013-05-20 17:12:00,
2013-05-20 13:17:00,80.6,35.9,29.32,WSW,251,3.6,22.4,20,0.20,,,0.16,VWS V13.01,2013-05-20 17:17:00,
2013-05-20 13:22:00,80.6,35.9,29.32,SSW,207,5.8,22.4,20,0.20,,,0.16,VWS V13.01,2013-05-20 17:22:00,
2013-05-20 13:27:00,80.4,35.7,29.29,SSW,210,2.2,22.4,20,0.20,,,0.16,VWS V13.01,2013-05-20 17:27:00,
2013-05-20 13:32:00,80.6,35.9,29.29,SW,221,6.3,22.4,20,0.20,,,0.16,VWS V13.01,2013-05-20 17:32:00,
2013-05-20 13:37:00,80.8,36.0,29.29,South,176,3.6,22.4,20,0.20,,,0.16,VWS V13.01,2013-05-20 17:37:00,
2013-05-20 13:42:00,81.1,36.3,29.32,NE,52,3.1,22.4,20,0.20,,,0.16,VWS V13.01,2013-05-20 17:42:00,
2013-05-20 13:47:00,81.7,35.5,29.32,SE,146,2.7,22.4,19,0.20,,,0.16,VWS V13.01,2013-05-20 17:47:00,
2013-05-20 13:52:00,81.9,35.6,29.32,SW,220,5.4,22.4,19,0.20,,,0.16,VWS V13.01,2013-05-20 17:52:00,
2013-05-20 13:57:00,81.7,35.5,29.29,SSW,204,4.0,22.4,19,0.20,,,0.16,VWS V13.01,2013-05-20 17:57:00,
2013-05-20 14:02:00,81.9,35.6,29.29,South,186,0.0,22.4,19,0.20,,,0.16,VWS V13.01,2013-05-20 18:02:00,
2013-05-20 14:07:00,82.8,32.0,29.29,WSW,258,0.0,22.4,16,0.20,,,0.16,VWS V13.01,2013-05-20 18:07:00,
2013-05-20 14:12:00,82.9,32.2,29.29,WSW,253,2.7,22.4,16,0.20,,,0.16,VWS V13.01,2013-05-20 18:12:00,
2013-05-20 14:17:00,82.6,31.9,29.29,North,0,2.2,22.4,16,0.20,,,0.16,VWS V13.01,2013-05-20 18:17:00,
2013-05-20 14:22:00,82.6,31.9,29.29,East,100,3.6,22.4,16,0.20,,,0.16,VWS V13.01,2013-05-20 18:22:00,
2013-05-20 14:27:00,82.6,36.2,29.29,SSE,158,5.8,22.4,19,0.20,,,0.16,VWS V13.01,2013-05-20 18:27:00,
2013-05-20 14:32:00,82.8,36.3,29.29,WNW,292,0.0,22.4,19,0.20,,,0.16,VWS V13.01,2013-05-20 18:32:00,
2013-05-20 14:37:00,83.3,32.5,29.29,WSW,255,2.2,22.4,16,0.20,,,0.16,VWS V13.01,2013-05-20 18:37:00,
2013-05-20 14:42:00,83.1,32.3,29.29,West,267,2.7,22.4,16,0.20,,,0.16,VWS V13.01,2013-05-20 18:42:00,
2013-05-20 14:47:00,83.3,32.5,29.29,WSW,237,2.7,22.4,16,0.20,,,0.16,VWS V13.01,2013-05-20 18:47:00,
2013-05-20 14:52:00,83.7,29.5,29.29,South,175,5.4,22.4,14,0.20,,,0.16,VWS V13.01,2013-05-20 18:52:00,
2013-05-20 14:57:00,83.8,29.6,29.29,SSE,155,3.1,22.4,14,0.20,,,0.16,VWS V13.01,2013-05-20 18:57:00,
2013-05-20 15:02:00,84.4,28.2,29.29,WSW,241,5.8,22.4,13,0.20,,,0.16,VWS V13.01,2013-05-20 19:02:00,
2013-05-20 15:07:00,84.6,24.3,29.29,West,268,3.1,22.4,11,0.20,,,0.16,VWS V13.01,2013-05-20 19:07:00,
2013-05-20 15:12:00,84.4,28.2,29.29,WSW,258,5.4,22.4,13,0.20,,,0.16,VWS V13.01,2013-05-20 19:12:00,
2013-05-20 15:17:00,84.6,28.4,29.29,SE,142,2.7,22.4,13,0.20,,,0.16,VWS V13.01,2013-05-20 19:17:00,
2013-05-20 15:22:00,84.9,24.6,29.29,South,185,5.4,22.4,11,0.20,,,0.16,VWS V13.01,2013-05-20 19:22:00,
2013-05-20 15:27:00,84.9,28.6,29.26,SW,220,3.1,22.4,13,0.20,,,0.16,VWS V13.01,2013-05-20 19:27:00,
2013-05-20 15:32:00,85.3,24.9,29.26,South,176,4.0,22.4,11,0.20,,,0.16,VWS V13.01,2013-05-20 19:32:00,
2013-05-20 15:37:00,84.9,24.6,29.26,South,184,5.8,22.4,11,0.20,,,0.16,VWS V13.01,2013-05-20 19:37:00,
2013-05-20 15:42:00,85.1,24.7,29.26,SE,142,4.0,22.4,11,0.20,,,0.16,VWS V13.01,2013-05-20 19:42:00,
2013-05-20 15:47:00,85.1,24.7,29.26,South,186,4.9,22.4,11,0.20,,,0.16,VWS V13.01,2013-05-20 19:47:00,
2013-05-20 15:52:00,84.9,24.6,29.26,SSE,154,5.4,22.4,11,0.20,,,0.16,VWS V13.01,2013-05-20 19:52:00,
2013-05-20 15:57:00,85.1,24.7,29.26,SW,232,3.6,22.4,11,0.20,,,0.16,VWS V13.01,2013-05-20 19:57:00,
2013-05-20 16:02:00,85.1,24.7,29.26,SSW,196,5.4,22.4,11,0.20,,,0.16,VWS V13.01,2013-05-20 20:02:00,
2013-05-20 16:07:00,85.5,25.0,29.26,SW,224,5.4,22.4,11,0.20,,,0.16,VWS V13.01,2013-05-20 20:07:00,
2013-05-20 16:12:00,85.6,25.2,29.26,SE,140,2.7,22.4,11,0.20,,,0.16,VWS V13.01,2013-05-20 20:12:00,
2013-05-20 16:17:00,86.0,25.4,29.26,South,185,8.3,22.4,11,0.20,,,0.16,VWS V13.01,2013-05-20 20:17:00,
2013-05-20 16:22:00,86.0,25.4,29.26,South,184,5.8,22.4,11,0.20,,,0.16,VWS V13.01,2013-05-20 20:22:00,
2013-05-20 16:27:00,85.6,25.2,29.26,SSE,159,4.0,22.4,11,0.20,,,0.16,VWS V13.01,2013-05-20 20:27:00,
2013-05-20 16:32:00,85.6,25.2,29.26,SSW,198,4.9,22.4,11,0.20,,,0.16,VWS V13.01,2013-05-20 20:32:00,
2013-05-20 16:37:00,85.6,25.2,29.26,South,178,0.0,22.4,11,0.20,,,0.16,VWS V13.01,2013-05-20 20:37:00,
2013-05-20 16:42:00,86.0,25.4,29.23,SSE,157,3.1,22.4,11,0.20,,,0.16,VWS V13.01,2013-05-20 20:42:00,
2013-05-20 16:47:00,85.8,25.3,29.23,South,187,4.5,22.4,11,0.20,,,0.16,VWS V13.01,2013-05-20 20:47:00,
2013-05-20 16:52:00,85.3,24.9,29.23,South,191,2.7,22.4,11,0.20,,,0.16,VWS V13.01,2013-05-20 20:52:00,
2013-05-20 16:57:00,84.9,24.6,29.23,SE,141,4.0,22.4,11,0.20,,,0.16,VWS V13.01,2013-05-20 20:57:00,
2013-05-20 17:02:00,85.1,24.7,29.23,SW,224,7.2,22.4,11,0.20,,,0.16,VWS V13.01,2013-05-20 21:02:00,
2013-05-20 17:07:00,84.9,24.6,29.23,SSW,192,3.1,22.4,11,0.20,,,0.16,VWS V13.01,2013-05-20 21:07:00,
2013-05-20 17:12:00,85.3,24.9,29.23,SW,231,8.1,22.4,11,0.20,,,0.16,VWS V13.01,2013-05-20 21:12:00,
2013-05-20 17:17:00,85.3,24.9,29.23,WSW,244,3.6,22.4,11,0.20,,,0.16,VWS V13.01,2013-05-20 21:17:00,
2013-05-20 17:23:00,86.0,25.4,29.23,SW,230,5.8,22.4,11,0.20,,,0.16,VWS V13.01,2013-05-20 21:23:00,
2013-05-20 17:28:00,86.2,25.6,29.23,SSE,164,5.4,22.4,11,0.20,,,0.16,VWS V13.01,2013-05-20 21:28:00,
2013-05-20 17:33:00,85.8,25.3,29.23,SE,137,8.7,22.4,11,0.20,,,0.16,VWS V13.01,2013-05-20 21:33:00,
2013-05-20 17:38:00,85.3,24.9,29.23,South,170,5.4,22.4,11,0.20,,,0.16,VWS V13.01,2013-05-20 21:38:00,
2013-05-20 17:43:00,85.5,25.0,29.21,SE,146,6.3,22.4,11,0.20,,,0.16,VWS V13.01,2013-05-20 21:43:00,
2013-05-20 17:48:00,85.8,25.3,29.21,South,191,3.1,22.4,11,0.20,,,0.16,VWS V13.01,2013-05-20 21:48:00,
2013-05-20 17:53:00,86.5,25.9,29.21,SSE,162,6.3,22.4,11,0.20,,,0.16,VWS V13.01,2013-05-20 21:53:00,
2013-05-20 17:58:00,86.9,26.1,29.23,SSW,200,4.9,22.4,11,0.20,,,0.16,VWS V13.01,2013-05-20 21:58:00,
2013-05-20 18:03:00,87.1,26.3,29.23,SW,226,5.4,22.4,11,0.20,,,0.16,VWS V13.01,2013-05-20 22:03:00,
2013-05-20 18:08:00,86.9,18.6,29.23,SSW,200,2.7,22.4,8,0.20,,,0.16,VWS V13.01,2013-05-20 22:08:00,
2013-05-20 18:13:00,86.9,18.6,29.23,WSW,237,4.9,22.4,8,0.20,,,0.16,VWS V13.01,2013-05-20 22:13:00,
2013-05-20 18:18:00,87.1,18.7,29.23,SSW,212,4.5,22.4,8,0.20,,,0.16,VWS V13.01,2013-05-20 22:18:00,
2013-05-20 18:23:00,86.9,26.1,29.23,SE,141,5.4,22.4,11,0.20,,,0.16,VWS V13.01,2013-05-20 22:23:00,
2013-05-20 18:28:00,86.4,25.7,29.21,South,170,3.1,22.4,11,0.20,,,0.16,VWS V13.01,2013-05-20 22:28:00,
2013-05-20 18:33:00,85.8,17.8,29.21,SSW,198,5.8,22.4,8,0.20,,,0.16,VWS V13.01,2013-05-20 22:33:00,
2013-05-20 18:38:00,85.6,25.2,29.21,SSE,152,4.9,22.4,11,0.20,,,0.16,VWS V13.01,2013-05-20 22:38:00,
2013-05-20 18:43:00,85.6,17.6,29.21,SSW,194,5.4,22.4,8,0.20,,,0.16,VWS V13.01,2013-05-20 22:43:00,
2013-05-20 18:48:00,85.5,25.0,29.21,SSW,194,3.1,22.4,11,0.20,,,0.16,VWS V13.01,2013-05-20 22:48:00,
2013-05-20 18:53:00,85.5,25.0,29.21,South,178,3.6,22.4,11,0.20,,,0.16,VWS V13.01,2013-05-20 22:53:00,
2013-05-20 18:58:00,85.3,24.9,29.21,SSW,193,3.6,22.4,11,0.20,,,0.16,VWS V13.01,2013-05-20 22:58:00,
2013-05-20 19:03:00,85.3,24.9,29.21,South,171,6.3,22.4,11,0.20,,,0.16,VWS V13.01,2013-05-20 23:03:00,
2013-05-20 19:08:00,85.1,24.7,29.21,SSW,194,6.3,22.4,11,0.20,,,0.16,VWS V13.01,2013-05-20 23:08:00,
2013-05-20 19:13:00,85.1,24.7,29.21,SSE,163,2.7,22.4,11,0.20,,,0.16,VWS V13.01,2013-05-20 23:13:00,
2013-05-20 19:18:00,85.3,24.9,29.21,SW,215,0.0,22.4,11,0.20,,,0.16,VWS V13.01,2013-05-20 23:18:00,
2013-05-20 19:23:00,85.1,24.7,29.21,WSW,242,3.1,22.4,11,0.20,,,0.16,VWS V13.01,2013-05-20 23:23:00,
2013-05-20 19:28:00,84.9,24.6,29.21,SSW,202,2.7,22.4,11,0.20,,,0.16,VWS V13.01,2013-05-20 23:28:00,
2013-05-20 19:33:00,84.9,24.6,29.21,SSW,210,4.0,22.4,11,0.20,,,0.16,VWS V13.01,2013-05-20 23:33:00,
2013-05-20 19:38:00,84.6,24.3,29.21,SSW,194,4.0,22.4,11,0.20,,,0.16,VWS V13.01,2013-05-20 23:38:00,
2013-05-20 19:43:00,84.2,24.0,29.23,South,183,3.6,22.4,11,0.20,,,0.16,VWS V13.01,2013-05-20 23:43:00,
2013-05-20 19:48:00,84.2,24.0,29.23,SSE,161,0.0,22.4,11,0.20,,,0.16,VWS V13.01,2013-05-20 23:48:00,
2013-05-20 19:53:00,84.2,24.0,29.23,South,187,4.0,22.4,11,0.20,,,0.16,VWS V13.01,2013-05-20 23:53:00,
2013-05-20 19:58:00,83.8,23.8,29.23,ESE,111,2.7,22.4,11,0.20,,,0.16,VWS V13.01,2013-05-20 23:58:00,
2013-05-20 20:03:00,83.7,23.6,29.23,South,178,2.2,22.4,11,0.20,,,0.16,VWS V13.01,2013-05-21 00:03:00,
2013-05-20 20:08:00,83.5,23.5,29.23,East,90,2.2,22.4,11,0.20,,,0.16,VWS V13.01,2013-05-21 00:08:00,
2013-05-20 20:13:00,82.9,23.1,29.21,ESE,110,2.7,22.4,11,0.20,,,0.16,VWS V13.01,2013-05-21 00:13:00,
2013-05-20 20:18:00,82.0,24.5,29.21,East,100,2.7,22.4,12,0.20,,,0.16,VWS V13.01,2013-05-21 00:18:00,
2013-05-20 20:23:00,81.5,24.0,29.21,East,93,2.7,22.4,12,0.20,,,0.16,VWS V13.01,2013-05-21 00:23:00,
2013-05-20 20:28:00,81.0,27.3,29.21,East,97,2.7,22.4,14,0.20,,,0.16,VWS V13.01,2013-05-21 00:28:00,
2013-05-20 20:33:00,80.4,28.6,29.21,East,97,0.0,22.4,15,0.20,,,0.16,VWS V13.01,2013-05-21 00:33:00,
2013-05-20 20:38:00,79.5,35.0,29.21,ESE,117,2.7,22.4,20,0.20,,,0.16,VWS V13.01,2013-05-21 00:38:00,
2013-05-20 20:45:00,78.6,34.2,29.21,ESE,117,2.2,22.4,20,0.20,,,0.16,VWS V13.01,2013-05-21 00:45:00,
2013-05-20 20:51:00,77.9,34.9,29.21,ESE,117,2.2,22.4,21,0.20,,,0.16,VWS V13.01,2013-05-21 00:51:00,
2013-05-20 20:56:00,77.2,35.4,29.21,ESE,117,0.0,22.4,22,0.20,,,0.16,VWS V13.01,2013-05-21 00:56:00,
2013-05-20 21:01:00,76.6,37.2,29.21,ESE,117,0.0,22.4,24,0.20,,,0.16,VWS V13.01,2013-05-21 01:01:00,
2013-05-20 21:06:00,76.1,38.8,29.21,ESE,117,2.2,22.4,26,0.20,,,0.16,VWS V13.01,2013-05-21 01:06:00,
2013-05-20 21:11:00,75.2,41.7,29.21,ESE,105,3.1,22.4,30,0.20,,,0.16,VWS V13.01,2013-05-21 01:11:00,
2013-05-20 21:16:00,74.8,42.2,29.21,ESE,115,2.2,22.4,31,0.20,,,0.16,VWS V13.01,2013-05-21 01:16:00,
2013-05-20 21:21:00,74.7,42.0,29.21,ESE,115,4.0,22.4,31,0.20,,,0.16,VWS V13.01,2013-05-21 01:21:00,
2013-05-20 21:26:00,74.7,42.0,29.23,ESE,112,2.7,22.4,31,0.20,,,0.16,VWS V13.01,2013-05-21 01:26:00,
2013-05-20 21:31:00,74.8,42.2,29.23,SE,125,2.7,22.4,31,0.20,,,0.16,VWS V13.01,2013-05-21 01:31:00,
2013-05-20 21:36:00,74.8,42.2,29.23,ESE,111,2.7,22.4,31,0.20,,,0.16,VWS V13.01,2013-05-21 01:36:00,
2013-05-20 21:41:00,74.5,41.9,29.23,ESE,118,2.2,22.4,31,0.20,,,0.16,VWS V13.01,2013-05-21 01:41:00,
2013-05-20 21:46:00,73.9,42.2,29.23,SE,131,4.0,22.4,32,0.20,,,0.16,VWS V13.01,2013-05-21 01:46:00,
2013-05-20 21:51:00,73.2,43.2,29.23,SE,127,3.1,22.4,34,0.20,,,0.16,VWS V13.01,2013-05-21 01:51:00,
2013-05-20 21:56:00,72.9,43.6,29.23,ESE,111,4.0,22.4,35,0.20,,,0.16,VWS V13.01,2013-05-21 01:56:00,
2013-05-20 22:02:00,72.5,44.1,29.23,SSE,147,3.1,22.4,36,0.20,,,0.16,VWS V13.01,2013-05-21 02:02:00,
2013-05-20 22:06:00,72.5,44.8,29.23,SE,143,3.6,22.4,37,0.20,,,0.16,VWS V13.01,2013-05-21 02:06:00,
2013-05-20 22:11:00,72.3,45.3,29.23,ESE,123,3.6,22.4,38,0.20,,,0.16,VWS V13.01,2013-05-21 02:11:00,
2013-05-20 22:17:00,72.3,45.3,29.23,SE,128,4.0,22.4,38,0.20,,,0.16,VWS V13.01,2013-05-21 02:17:00,
2013-05-20 22:22:00,72.3,46.7,29.23,ESE,116,5.8,22.4,40,0.20,,,0.16,VWS V13.01,2013-05-21 02:22:00,
2013-05-20 22:27:00,72.3,46.0,29.23,SE,131,4.9,22.4,39,0.20,,,0.16,VWS V13.01,2013-05-21 02:27:00,
2013-05-20 22:32:00,72.5,45.5,29.23,ESE,122,3.6,22.4,38,0.20,,,0.16,VWS V13.01,2013-05-21 02:32:00,
2013-05-20 22:37:00,72.9,44.4,29.23,SE,130,5.8,22.4,36,0.20,,,0.16,VWS V13.01,2013-05-21 02:37:00,
2013-05-20 22:42:00,73.0,43.8,29.23,SE,126,3.6,22.4,35,0.20,,,0.16,VWS V13.01,2013-05-21 02:42:00,
2013-05-20 22:47:00,73.2,43.2,29.23,East,80,5.8,22.4,34,0.20,,,0.16,VWS V13.01,2013-05-21 02:47:00,
2013-05-20 22:52:00,73.6,42.7,29.23,ESE,121,3.1,22.4,33,0.20,,,0.16,VWS V13.01,2013-05-21 02:52:00,
2013-05-20 22:57:00,73.6,42.7,29.23,SE,145,3.6,22.4,33,0.20,,,0.16,VWS V13.01,2013-05-21 02:57:00,
2013-05-20 23:02:00,73.2,44.0,29.23,ESE,119,4.5,22.4,35,0.20,,,0.16,VWS V13.01,2013-05-21 03:02:00,
2013-05-20 23:07:00,73.2,43.2,29.23,East,101,4.0,22.4,34,0.20,,,0.16,VWS V13.01,2013-05-21 03:07:00,
2013-05-20 23:12:00,73.4,42.6,29.23,ESE,109,3.6,22.4,33,0.20,,,0.16,VWS V13.01,2013-05-21 03:12:00,
2013-05-20 23:17:00,73.8,42.1,29.23,East,93,5.4,22.4,32,0.20,,,0.16,VWS V13.01,2013-05-21 03:17:00,
2013-05-20 23:22:00,74.5,41.9,29.23,SE,133,3.1,22.4,31,0.20,,,0.16,VWS V13.01,2013-05-21 03:22:00,
2013-05-20 23:27:00,75.0,40.6,29.23,ESE,102,6.3,22.4,29,0.20,,,0.16,VWS V13.01,2013-05-21 03:27:00,
2013-05-20 23:32:00,75.2,39.0,29.23,East,98,4.5,22.4,27,0.20,,,0.16,VWS V13.01,2013-05-21 03:32:00,
2013-05-20 23:37:00,75.0,39.7,29.23,ESE,115,4.5,22.4,28,0.20,,,0.16,VWS V13.01,2013-05-21 03:37:00,
2013-05-20 23:42:00,74.8,40.5,29.23,East,99,4.0,22.4,29,0.20,,,0.16,VWS V13.01,2013-05-21 03:42:00,
2013-05-20 23:47:00,74.8,41.4,29.23,SE,141,3.6,22.4,30,0.20,,,0.16,VWS V13.01,2013-05-21 03:47:00,
2013-05-20 23:52:00,74.7,41.2,29.23,ESE,121,4.0,22.4,30,0.20,,,0.16,VWS V13.01,2013-05-21 03:52:00,
2013-05-20 23:57:00,74.7,41.2,29.23,ESE,108,5.4,22.4,30,0.20,,,0.16,VWS V13.01,2013-05-21 03:57:00,